Location: Newark
(31.5350°N, 35.0986°E)
Time: 15:32:43
(UTC+00:00)

Vanguard 1 - Pass Details

Date: 26 September 2019
Orbit: 653 x 3830 km, 34.3° (Epoch: 14 October)

Event Time Altitude Azimuth Distance (km) Brightness Sun altitude
Rises 23:45:27 0° 260° (W) 7,468 - -46.0°
Reaches altitude 10° 23:50:08 10° 261° (W) 6,667 - -45.2°
Exits shadow 00:07:39 61° 272° (W) 4,118 12.7 -42.1°
Maximum altitude 00:14:03 84° 351° (N) 3,691 12.6 -41.0°
Drops below altitude 10° 00:33:03 10° 82° (E) 5,512 14.5 -37.4°
Sets 00:36:29 0° 83° (E) 6,190 15.0 -36.7°
